FW2264 Weather Reports


Display with metric or nautical units.
time (UTC)temp
F
wind
direction
speed
MPH
gust
MPH
rain 1hr
in
rain 24hr
in
rain mn
in
humidity
%
barometer
mb
20260502205943 44 193 1.0 4.0 0.00 0.00 0.00 56 1015.3
20260502205437 45 316 1.0 6.0 0.00 0.00 0.00 58 1015.2
20260502204931 45 196 1.0 6.0 0.00 0.00 0.00 60 1015.3
20260502204425 45 272 2.0 6.0 0.00 0.00 0.00 59 1015.2
20260502203919 45 321 1.0 6.0 0.00 0.00 0.00 59 1015.2
20260502203412 44 270 1.0 7.0 0.00 0.00 0.00 59 1015.2
20260502202907 43 310 1.0 7.0 0.00 0.00 0.00 61 1015.3
20260502202402 43 259 1.0 3.0 0.00 0.00 0.00 63 1015.4
20260502202115 43 284 1.0 3.0 0.00 0.00 0.00 62 1015.3
20260502201349 43 246 1.0 5.0 0.00 0.00 0.00 63 1015.3
20260502200843 43 258 1.0 5.0 0.00 0.00 0.00 63 1015.4
20260502200337 43 107 1.0 6.0 0.00 0.00 0.00 64 1015.4
20260502195830 43 262 1.0 6.0 0.00 0.00 0.00 63 1015.5
20260502195324 44 219 1.0 4.0 0.00 0.00 0.00 63 1015.5
20260502194818 44 283 1.0 4.0 0.00 0.00 0.00 64 1015.5
20260502194312 45 337 1.0 4.0 0.00 0.00 0.00 63 1015.5
20260502193806 45 197 2.0 5.0 0.00 0.00 0.00 59 1015.4
20260502193300 45 198 2.0 5.0 0.00 0.00 0.00 61 1015.4
20260502192755 45 209 1.0 4.0 0.00 0.00 0.00 60 1015.4
20260502192734 44 220 1.0 3.0 0.00 0.00 0.00 60 1015.5
20260502191742 44 243 1.0 4.0 0.00 0.00 0.00 60 1015.5
20260502191237 44 208 1.0 4.0 0.00 0.00 0.00 62 1015.5
20260502190731 44 167 1.0 4.0 0.00 0.00 0.00 62 1015.6
20260502190225 44 175 1.0 4.0 0.00 0.00 0.00 63 1015.6
20260502185719 44 178 1.0 4.0 0.00 0.00 0.00 62 1015.6
20260502185214 44 253 1.0 4.0 0.00 0.00 0.00 59 1015.6
20260502184707 45 265 1.0 4.0 0.00 0.00 0.00 59 1015.8
20260502184421 46 204 1.0 5.0 0.00 0.01 0.00 58 1015.6
20260502183917 46 304 1.0 5.0 0.00 0.01 0.00 57 1015.6
20260502183149 47 285 2.0 6.0 0.00 0.01 0.00 58 1015.8
20260502182910 47 0 1.0 6.0 0.00 0.01 0.00 58 1015.6
20260502182359 47 250 2.0 6.0 0.00 0.01 0.00 60 1015.6
20260502181631 46 269 2.0 6.0 0.00 0.01 0.00 64 1015.6
20260502181125 45 140 2.0 7.0 0.00 0.01 0.00 63 1015.9
20260502180619 44 213 1.0 7.0 0.00 0.01 0.00 63 1015.9
20260502180113 43 123 1.0 3.0 0.00 0.01 0.00 69 1016.0
20260502170507 43 180 4.0 7.0 0.00 0.01 0.00 67 1015.8
20260502163938 44 171 2.0 3.0 0.00 0.03 0.00 62 1015.6
20260502163438 43 234 2.0 4.0 0.00 0.03 0.00 62 1015.9
20260502162937 43 205 1.0 4.0 0.00 0.03 0.00 63 1015.9
20260502162659 43 291 1.0 4.0 0.00 0.03 0.00 65 1016.0
20260502161937 43 227 1.0 4.0 0.00 0.03 0.00 65 1016.0
20260502161437 43 207 2.0 4.0 0.00 0.03 0.00 67 1016.1
20260502160935 42 179 1.0 4.0 0.00 0.04 0.00 67 1016.0
20260502160435 42 184 1.0 5.0 0.00 0.04 0.00 67 1016.0
20260502151931 42 306 1.0 4.0 0.00 0.05 0.00 68 1015.9
20260502151427 41 284 1.0 4.0 0.00 0.05 0.00 70 1015.9
20260502150927 41 213 1.0 3.0 0.00 0.05 0.00 69 1015.8
20260502150427 42 281 1.0 4.0 0.00 0.05 0.00 70 1015.8
20260502130330 39 210 2.0 4.0 0.00 0.09 0.00 82 1015.3
20260502123800 36 194 1.0 4.0 0.00 0.09 0.00 82 1015.1
20260502123451 35 220 1.0 3.0 0.00 0.09 0.00 82 1015.1
20260502123341 35 202 1.0 3.0 0.00 0.09 0.00 81 1015.1
20260502122252 35 173 2.0 4.0 0.00 0.09 0.00 81 1015.1
20260502121751 34 189 2.0 4.0 0.00 0.09 0.00 82 1015.1
20260502121510 34 178 1.0 4.0 0.00 0.09 0.00 82 1015.1
20260502120754 34 184 1.0 3.0 0.00 0.09 0.00 83 1015.0
20260502120248 34 185 1.0 3.0 0.00 0.09 0.00 84 1015.0
20260502115748 34 188 1.0 2.0 0.00 0.09 0.00 85 1015.0
20260502115246 33 188 1.0 2.0 0.00 0.09 0.00 85 1015.0
20260502114747 33 196 1.0 2.0 0.00 0.09 0.00 86 1015.0
20260502114510 33 200 1.0 2.0 0.00 0.09 0.00 87 1015.1
20260502113747 32 198 1.0 2.0 0.00 0.09 0.00 86 1015.1
20260502113247 32 196 1.0 3.0 0.00 0.09 0.00 87 1015.0
20260502112746 32 194 1.0 3.0 0.00 0.09 0.00 87 1015.0
20260502112246 32 196 1.0 2.0 0.00 0.09 0.00 87 1015.0
20260502111747 32 196 1.0 2.0 0.00 0.09 0.00 88 1015.0
20260502111502 32 195 1.0 2.0 0.00 0.09 0.00 88 1014.9
20260502110744 32 195 1.0 2.0 0.00 0.09 0.00 88 1015.0
20260502110242 32 195 1.0 2.0 0.00 0.09 0.00 88 1015.0
20260502105736 32 195 1.0 1.0 0.00 0.09 0.00 88 1014.9
20260502105230 32 195 1.0 2.0 0.00 0.09 0.00 87 1014.9
20260502104724 32 195 0.0 2.0 0.00 0.09 0.00 87 1014.8
20260502104709 32 195 0.0 2.0 0.00 0.09 0.00 87 1014.8
20260502103718 32 195 0.0 2.0 0.00 0.09 0.00 87 1014.8
20260502103216 32 195 0.0 0.0 0.00 0.09 0.00 86 1014.8
20260502102715 32 195 0.0 0.0 0.00 0.09 0.00 86 1014.8
20260502102212 32 195 0.0 2.0 0.00 0.09 0.00 86 1014.8
20260502101933 32 195 0.0 2.0 0.00 0.09 0.00 86 1014.8
20260502101209 32 195 0.0 2.0 0.00 0.09 0.00 86 1014.7
20260502100706 32 195 0.0 2.0 0.00 0.09 0.00 85 1014.7
20260502100206 32 195 0.0 2.0 0.00 0.09 0.00 85 1014.7
20260502091152 34 195 1.0 2.0 0.00 0.09 0.00 83 1014.6
20260502090652 34 195 1.0 2.0 0.00 0.09 0.00 83 1014.6
20260502090152 34 192 1.0 2.0 0.00 0.09 0.00 83 1014.6
20260502071122 36 188 2.0 3.0 0.00 0.09 0.00 89 1014.7
20260502070622 36 184 2.0 3.0 0.00 0.09 0.00 89 1014.7
20260502070122 36 186 2.0 3.0 0.00 0.09 0.00 90 1014.6
20260502065845 36 179 1.0 3.0 0.00 0.09 0.00 90 1014.7
20260502065349 36 188 1.0 3.0 0.00 0.09 0.00 91 1014.8
20260502064622 37 185 1.0 2.0 0.00 0.09 0.00 91 1014.8
20260502064121 37 182 1.0 2.0 0.00 0.09 0.00 91 1014.8
20260502063622 37 181 1.0 2.0 0.00 0.09 0.00 91 1014.8
20260502063122 37 184 1.0 3.0 0.00 0.09 0.00 91 1014.9
20260502062622 37 184 1.0 3.0 0.00 0.09 0.00 91 1014.9
20260502062122 37 174 2.0 3.0 0.00 0.09 0.00 92 1014.9
20260502061621 37 178 2.0 3.0 0.00 0.09 0.00 92 1014.9
20260502061122 37 180 1.0 3.0 0.00 0.09 0.00 92 1014.9
20260502060622 37 180 1.0 2.0 0.00 0.09 0.00 92 1014.9
20260502060613 37 191 1.0 1.0 0.00 0.09 0.00 92 1014.9
20260502055622 36 195 1.0 1.0 0.00 0.09 0.00 92 1014.9
20260502055122 36 196 0.0 1.0 0.00 0.09 0.00 92 1015.0
20260502054845 37 196 0.0 1.0 0.00 0.09 0.00 92 1015.1
20260502054109 37 196 0.0 2.0 0.00 0.09 0.00 92 1015.1
20260502053603 37 196 0.0 2.0 0.00 0.09 0.00 92 1015.1
20260502053057 37 196 0.0 0.0 0.00 0.09 0.00 92 1015.1
20260502052551 37 196 0.0 0.0 0.00 0.09 0.00 92 1015.0
20260502052044 37 196 0.0 2.0 0.00 0.09 0.00 92 1015.0
20260502051540 37 196 0.0 2.0 0.00 0.09 0.00 92 1015.1
20260502051033 37 196 0.0 2.0 0.00 0.09 0.00 92 1015.1
20260502050750 37 196 0.0 2.0 0.00 0.09 0.00 92 1015.1
20260502050020 37 196 0.0 1.0 0.00 0.09 0.00 92 1015.1
20260502045513 37 196 0.0 2.0 0.00 0.09 0.00 92 1015.2
20260502045007 38 196 0.0 2.0 0.00 0.09 0.00 91 1015.1
20260502044501 38 196 0.0 2.0 0.00 0.09 0.00 91 1015.1
20260502043955 38 196 0.0 2.0 0.00 0.09 0.00 91 1015.1
20260502043449 38 196 0.0 2.0 0.00 0.09 0.00 91 1015.1
20260502042943 38 196 0.0 2.0 0.00 0.09 0.00 91 1015.1
20260502042703 38 196 0.0 2.0 0.00 0.09 0.00 92 1015.2
20260502041931 38 196 0.0 1.0 0.00 0.09 0.00 91 1015.2
20260502041425 37 196 0.0 0.0 0.00 0.09 0.00 91 1015.1
20260502041403 37 196 0.0 0.0 0.00 0.09 0.00 90 1015.2
20260502040413 37 196 0.0 0.0 0.00 0.09 0.00 90 1015.1
20260502040136 37 196 0.0 0.0 0.00 0.09 0.09 89 1015.1
20260502035621 38 196 0.0 0.0 0.00 0.09 0.09 89 1015.1
20260502034856 38 196 0.0 0.0 0.00 0.09 0.09 89 1015.0
20260502034350 38 196 0.0 0.0 0.00 0.09 0.09 89 1015.0
20260502033844 38 196 0.0 0.0 0.00 0.09 0.09 88 1015.1
20260502033338 38 196 0.0 0.0 0.00 0.09 0.09 88 1015.0
20260502032832 39 196 0.0 0.0 0.00 0.09 0.09 88 1015.2
20260502032326 39 196 0.0 0.0 0.00 0.09 0.09 88 1015.3
20260502031820 39 196 0.0 2.0 0.00 0.09 0.09 88 1015.2
20260502031314 39 196 0.0 2.0 0.00 0.09 0.09 87 1015.1
20260502030808 40 196 0.0 1.0 0.00 0.09 0.09 87 1015.1
20260502030522 40 196 0.0 2.0 0.00 0.09 0.09 87 1015.1
20260502030018 40 196 0.0 2.0 0.00 0.09 0.09 88 1015.2
20260502025515 40 196 0.0 2.0 0.00 0.09 0.09 87 1015.2
20260502024744 40 196 0.0 2.0 0.00 0.09 0.09 87 1015.1
20260502024238 40 196 0.0 0.0 0.00 0.09 0.09 87 1015.1
20260502024002 40 196 0.0 0.0 0.00 0.09 0.09 86 1015.1
20260502023226 40 196 0.0 0.0 0.00 0.09 0.09 86 1015.1
20260502022937 41 196 0.0 0.0 0.00 0.09 0.09 86 1015.0
20260502022214 41 196 0.0 0.0 0.00 0.09 0.09 89 1015.0
20260502021708 41 196 0.0 0.0 0.00 0.09 0.09 87 1014.9
20260502021202 41 196 0.0 0.0 0.00 0.09 0.09 86 1014.9
20260502020656 41 196 0.0 0.0 0.00 0.09 0.09 86 1014.8
20260502020150 41 196 0.0 2.0 0.00 0.09 0.09 85 1014.8
20260502015644 41 196 0.0 2.0 0.00 0.09 0.09 85 1014.9
20260502015139 41 196 0.0 2.0 0.00 0.09 0.09 85 1014.8
20260502014632 41 196 0.0 2.0 0.00 0.09 0.09 85 1014.8
20260502014435 41 196 0.0 2.0 0.00 0.09 0.09 85 1014.7
20260502014327 41 196 0.0 2.0 0.00 0.09 0.09 85 1014.7
20260502013115 41 196 0.0 1.0 0.00 0.09 0.09 84 1014.6
20260502012608 41 196 0.0 0.0 0.00 0.09 0.09 83 1014.4
20260502012102 41 196 0.0 0.0 0.00 0.09 0.09 83 1014.3
20260502011556 41 196 0.0 0.0 0.00 0.09 0.09 81 1014.3
20260502011050 41 196 0.0 0.0 0.00 0.09 0.09 81 1014.2
20260502010745 41 196 0.0 1.0 0.00 0.09 0.09 80 1014.1
20260502010634 41 196 0.0 1.0 0.00 0.09 0.09 81 1014.1
20260502005748 41 196 0.0 2.0 0.00 0.09 0.09 80 1014.1
20260502005247 42 196 0.0 2.0 0.00 0.09 0.09 79 1014.1
20260502004749 42 196 0.0 2.0 0.00 0.09 0.09 78 1014.2
20260502004014 42 196 0.0 2.0 0.00 0.09 0.09 78 1014.2
20260502003728 42 181 1.0 3.0 0.00 0.09 0.09 78 1014.2
20260502003002 42 251 1.0 3.0 0.00 0.09 0.09 77 1014.3
20260502002456 43 212 1.0 2.0 0.00 0.09 0.09 78 1014.4
20260502001950 43 200 0.0 2.0 0.00 0.09 0.09 77 1014.4
20260502001446 43 199 0.0 3.0 0.00 0.09 0.09 77 1014.2
20260502000938 43 196 0.0 3.0 0.00 0.09 0.09 78 1014.0
20260502000432 43 221 0.0 2.0 0.00 0.09 0.09 78 1013.9
20260502000152 43 217 0.0 2.0 0.00 0.09 0.09 79 1013.7
20260501235420 43 234 0.0 2.0 0.00 0.09 0.09 78 1013.7
20260501234914 43 232 0.0 2.0 0.00 0.09 0.09 79 1013.6
20260501234408 43 257 0.0 2.0 0.00 0.09 0.09 79 1013.5
20260501233901 43 257 0.0 2.0 0.00 0.09 0.09 80 1013.4
20260501233356 43 257 0.0 2.0 0.00 0.09 0.09 79 1013.4
20260501232850 43 257 0.0 2.0 0.00 0.09 0.09 79 1013.3
20260501232344 44 244 0.0 2.0 0.00 0.09 0.09 78 1013.2
20260501232106 44 286 0.0 2.0 0.00 0.09 0.09 78 1013.2
20260501231342 44 300 0.0 2.0 0.00 0.09 0.09 78 1013.2
20260501230840 44 305 0.0 2.0 0.00 0.09 0.09 77 1013.0
20260501230338 44 321 0.0 2.0 0.00 0.09 0.09 78 1013.0
20260501225338 44 262 0.0 2.0 0.00 0.09 0.09 77 1013.0
20260501224838 44 200 0.0 2.0 0.00 0.09 0.09 78 1013.0
20260501224338 44 220 0.0 2.0 0.00 0.09 0.09 78 1013.2
20260501223838 44 205 1.0 2.0 0.00 0.09 0.09 79 1013.1
20260501223338 44 229 1.0 3.0 0.00 0.09 0.09 78 1013.2
20260501222838 44 267 1.0 3.0 0.00 0.09 0.09 77 1013.3
20260501222338 44 244 1.0 2.0 0.00 0.09 0.09 78 1013.3
20260501221838 44 257 1.0 3.0 0.00 0.09 0.09 78 1013.2
20260501221338 44 190 1.0 3.0 0.00 0.09 0.09 78 1013.3
20260501220838 44 252 1.0 3.0 0.00 0.09 0.09 79 1013.2
20260501220334 43 244 1.0 3.0 0.00 0.09 0.09 78 1013.2
20260501215835 44 201 1.0 3.0 0.00 0.09 0.09 79 1013.2
20260501215334 44 325 1.0 3.0 0.00 0.09 0.09 81 1013.2
20260501214834 43 227 1.0 4.0 0.00 0.09 0.09 81 1013.1
20260501214825 43 173 1.0 4.0 0.00 0.09 0.09 79 1013.1
20260501213834 43 262 1.0 3.0 0.00 0.09 0.09 79 1013.0
20260501213334 43 156 2.0 7.0 0.00 0.09 0.09 78 1012.7
20260501212834 43 251 1.0 7.0 0.00 0.09 0.09 79 1012.6
20260501212334 44 287 1.0 7.0 0.00 0.09 0.09 79 1012.5
20260501211834 44 177 2.0 7.0 0.00 0.09 0.09 79 1012.5
20260501211334 44 222 2.0 4.0 0.00 0.09 0.09 80 1012.4
20260501210834 44 169 1.0 5.0 0.00 0.09 0.09 80 1012.4